Flag for U.S.A. Weather past 2 weeks in Vincennes, Indiana, U.S.A.

Now
59 °F

Fog.


Feels Like: 60 °F
Forecast: 60 / 83 °F
Wind: 3 mph from Southwest

Location: Lawrenceville-Vincennes International Airport

Current Time: Jul 31, 2014 at 8:14:37 AM

Latest Report: Jul 31, 2014 at 7:00 AM


Visibility: 1 mi

Pressure: 30.09 "Hg

Humidity: 96%

Dew point: 58 °F

Location of VincennesLocation

Historic Weather in Vincennes — Graph

°F

Vincennes temperature yesterday

Maximum temperature yesterday: 81 °F (at 4:53 PM)
Minimum temperature yesterday: 56 °F (at 5:53 AM)
Average temperature yesterday: 69 °F

Past Weeks' High & Low Weather Summary

 TemperatureHumidityPressure
High89 °F (Jul 26, 4:53 PM)100% (Jul 26, 11:53 PM)30.16 "Hg (Jul 26, 11:53 PM)
Low54 °F (Jul 17, 6:53 AM)38% (Jul 17, 4:53 PM)29.78 "Hg (Jul 27, 6:53 AM)
Average70 °F76%30.03 "Hg
* Reported Jul 16 7:53 AM — Jul 31 7:00 AM, Vincennes, Weather by CustomWeather, © 2014

Note: Actual official high and low records may vary slightly from our data, if they occured in-between our weather recording intervals... More about our weather records

Advertising

Vincennes weather history for previous 24 hours

 ConditionsComfort  
Time TempWeatherWind HumidityBarometerVisibility
7:00 AM
Jul 31
59 °FFog.3 mph96%30.09 "Hg1 mi
5:53 AM59 °FFog.5 mph96%30.07 "Hg3 mi
4:53 AM60 °FFog.5 mph93%30.06 "Hg4 mi
3:53 AM61 °FFog.3 mph93%30.06 "Hg6 mi
2:53 AM62 °FClear.5 mph93%30.06 "Hg7 mi
1:53 AM63 °FClear.3 mph93%30.07 "Hg7 mi
12:53 AM65 °FClear.5 mph87%30.06 "Hg9 mi
11:53 PM
Jul 30
66 °FClear.No wind87%30.06 "Hg9 mi
10:53 PM67 °FClear.3 mph85%30.05 "Hg9 mi
9:53 PM69 °FPartly sunny.7 mph81%30.04 "Hg10 mi
8:53 PM72 °FSunny.3 mph76%30.03 "Hg9 mi
7:53 PM77 °FSunny.3 mph56%30.04 "Hg10 mi
6:53 PM79 °FSunny.7 mph48%30.03 "Hg10 mi
5:53 PM81 °FSunny.9 mph47%30.03 "Hg10 mi
4:53 PM81 °FPassing clouds.10 mph47%30.05 "Hg10 mi
3:53 PM80 °FSunny.8 mph51%30.06 "Hg10 mi
2:53 PM79 °FScattered clouds.7 mph52%30.07 "Hg10 mi
1:53 PM79 °FPassing clouds.9 mph52%30.08 "Hg10 mi
12:53 PM77 °FPassing clouds.10 mph56%30.09 "Hg10 mi
11:53 AM76 °FSunny.8 mph60%30.09 "Hg10 mi
10:53 AM73 °FSunny.8 mph64%30.10 "Hg10 mi
9:53 AM69 °FSunny.7 mph73%30.09 "Hg10 mi
8:53 AM63 °FSunny.5 mph87%30.09 "Hg8 mi
Weather by CustomWeather, © 2014

See weather overviewHow to use our weather pages